C/2017 T1 ( Heinze )

Japanese version
Home page
Updated on November 23, 2017

---------------------------------------------------------------------

* Profile

Discovery Date October 2, 2017
Magnitude 18.2 mag
Discoverer Aren Heinze (Asteroid Terrestrial-impact Last Alert System (ATLAS) search program)

* Pictures

* Orbital Elements

Epoch 2018 Feb. 11.0 TT = JDT 2458160.5
T 2018 Feb. 21.71216 TT                                 MPCW
q   0.5807430            (2000.0)            P               Q
z  -0.0008932      Peri.   96.90703     +0.14096158     +0.19788617
 +/-0.0008076      Node   102.32179     -0.47677681     -0.84514441
e   1.0005187      Incl.   96.82744     +0.86764838     -0.49656015
From 116 observations 2017 Sept. 28-Nov. 2, mean residual 0".7.

* Finding Charts

* Magnitudes Graph

        m1 = 11.5 + 5 log d + 10.0 log r

---------------------------------------------------------------------

The orbital elements are published on M.P.E.C. 2017-V13.
The charts are made with StellaNavigator Ver.10 (AstroArts).
The magnitudes graphs are made with Comet for Windows.

---------------------------------------------------------------------

Copyright(C) Seiichi Yoshida (comet@aerith.net). All rights reserved.